Time,TemperatureF,DewpointF,PressureIn,WindDirection,WindDirectionDegrees,WindSpeedMPH,WindSpeedGustMPH,Humidity,HourlyPrecipIn,Conditions,Clouds,dailyrainin,SoftwareType,DateUTC
2013-05-02 00:02:00,71.0,62.0,29.58,ENE,57,5.0,12.0,74,0.00,,,0.00,,2013-05-02 05:02:00,
2013-05-02 00:12:00,71.0,62.0,29.58,ENE,57,5.0,12.0,74,0.00,,,0.00,,2013-05-02 05:12:00,
2013-05-02 00:22:00,70.0,62.0,29.59,NE,38,5.0,14.0,75,0.00,,,0.00,,2013-05-02 05:22:00,
2013-05-02 00:32:00,69.0,61.0,29.61,ENE,72,2.0,5.0,77,0.00,,,0.00,,2013-05-02 05:32:00,
2013-05-02 00:42:00,69.0,61.0,29.61,ENE,72,2.0,5.0,77,0.00,,,0.00,,2013-05-02 05:42:00,
2013-05-02 00:52:00,69.0,62.0,29.64,ENE,61,1.0,7.0,79,0.00,,,0.00,,2013-05-02 05:52:00,
2013-05-02 01:01:00,69.0,63.0,29.65,NNE,22,0.0,5.0,80,0.00,,,0.00,,2013-05-02 06:01:00,
2013-05-02 01:12:00,69.0,63.0,29.65,NNE,22,0.0,5.0,80,0.00,,,0.00,,2013-05-02 06:12:00,
2013-05-02 01:21:00,68.0,62.0,29.66,NE,37,0.0,3.0,81,0.00,,,0.00,,2013-05-02 06:21:00,
2013-05-02 01:32:00,68.0,62.0,29.66,NNE,33,0.0,3.0,82,0.00,,,0.00,,2013-05-02 06:32:00,
2013-05-02 01:42:00,68.0,62.0,29.66,NNE,33,0.0,3.0,82,0.00,,,0.00,,2013-05-02 06:42:00,
2013-05-02 01:52:00,68.0,62.0,29.66,NE,54,2.0,7.0,82,0.00,,,0.00,,2013-05-02 06:52:00,
2013-05-02 02:02:00,67.0,62.0,29.65,NNE,21,1.0,7.0,83,0.00,,,0.00,,2013-05-02 07:02:00,
2013-05-02 02:11:00,67.0,62.0,29.65,NNE,21,1.0,7.0,83,0.00,,,0.00,,2013-05-02 07:11:00,
2013-05-02 02:21:00,67.0,62.0,29.66,NE,49,4.0,8.0,83,0.00,,,0.00,,2013-05-02 07:21:00,
2013-05-02 02:32:00,67.0,62.0,29.67,NNE,29,2.0,7.0,83,0.00,,,0.00,,2013-05-02 07:32:00,
2013-05-02 02:42:00,67.0,62.0,29.67,NNE,29,2.0,7.0,83,0.00,,,0.00,,2013-05-02 07:42:00,
2013-05-02 02:52:00,67.0,62.0,29.67,NNW,330,1.0,7.0,83,0.00,,,0.00,,2013-05-02 07:52:00,
2013-05-02 03:02:00,67.0,61.0,29.67,NNW,341,1.0,5.0,82,0.00,,,0.00,,2013-05-02 08:02:00,
2013-05-02 03:11:00,67.0,61.0,29.67,NNW,341,1.0,5.0,82,0.00,,,0.00,,2013-05-02 08:11:00,
2013-05-02 03:22:00,67.0,61.0,29.67,NW,315,0.0,7.0,82,0.00,,,0.00,,2013-05-02 08:22:00,
2013-05-02 03:32:00,67.0,61.0,29.66,NNW,338,2.0,6.0,82,0.00,,,0.00,,2013-05-02 08:32:00,
2013-05-02 03:42:00,67.0,61.0,29.66,NNW,338,2.0,6.0,82,0.00,,,0.00,,2013-05-02 08:42:00,
2013-05-02 03:52:00,67.0,61.0,29.67,NNW,338,2.0,11.0,82,0.00,,,0.00,,2013-05-02 08:52:00,
2013-05-02 04:02:00,67.0,61.0,29.67,NNW,347,1.0,9.0,82,0.00,,,0.00,,2013-05-02 09:02:00,
2013-05-02 04:11:00,67.0,61.0,29.67,NNW,347,1.0,9.0,82,0.00,,,0.00,,2013-05-02 09:11:00,
2013-05-02 04:21:00,67.0,61.0,29.68,NNW,347,2.0,11.0,81,0.00,,,0.00,,2013-05-02 09:21:00,
2013-05-02 04:32:00,67.0,60.0,29.69,NW,307,3.0,10.0,79,0.00,,,0.00,,2013-05-02 09:32:00,
2013-05-02 04:42:00,67.0,60.0,29.69,NW,307,3.0,10.0,79,0.00,,,0.00,,2013-05-02 09:42:00,
2013-05-02 04:52:00,62.0,53.0,29.70,NW,304,4.0,12.0,73,0.00,,,0.00,,2013-05-02 09:52:00,
2013-05-02 05:02:00,60.0,52.0,29.71,NW,318,3.0,9.0,74,0.00,,,0.00,,2013-05-02 10:02:00,
2013-05-02 05:12:00,60.0,52.0,29.71,NW,318,3.0,9.0,74,0.00,,,0.00,,2013-05-02 10:12:00,
2013-05-02 05:22:00,59.0,51.0,29.72,West,269,6.0,14.0,74,0.00,,,0.00,,2013-05-02 10:22:00,
2013-05-02 05:33:00,57.0,50.0,29.73,WNW,292,3.0,7.0,76,0.00,,,0.00,,2013-05-02 10:33:00,
2013-05-02 05:42:00,57.0,50.0,29.73,WNW,292,3.0,7.0,76,0.00,,,0.00,,2013-05-02 10:42:00,
2013-05-02 05:52:00,56.0,49.0,29.74,NW,319,4.0,11.0,78,0.00,,,0.00,,2013-05-02 10:52:00,
2013-05-02 06:02:00,55.0,49.0,29.75,WNW,290,3.0,13.0,79,0.00,,,0.00,,2013-05-02 11:02:00,
2013-05-02 06:12:00,55.0,49.0,29.75,WNW,290,3.0,13.0,79,0.00,,,0.00,,2013-05-02 11:12:00,
2013-05-02 06:22:00,53.0,47.0,29.76,West,265,5.0,17.0,79,0.00,,,0.00,,2013-05-02 11:22:00,
2013-05-02 06:32:00,52.0,45.0,29.78,SSW,210,5.0,14.0,78,0.00,,,0.00,,2013-05-02 11:32:00,
2013-05-02 06:42:00,52.0,45.0,29.78,SSW,210,5.0,14.0,78,0.00,,,0.00,,2013-05-02 11:42:00,
2013-05-02 06:52:00,52.0,45.0,29.79,WSW,252,3.0,12.0,77,0.00,,,0.00,,2013-05-02 11:52:00,
2013-05-02 07:01:00,51.0,44.0,29.80,West,272,3.0,13.0,78,0.00,,,0.00,,2013-05-02 12:01:00,
2013-05-02 07:11:00,51.0,44.0,29.80,West,272,3.0,13.0,78,0.00,,,0.00,,2013-05-02 12:11:00,
2013-05-02 07:21:00,51.0,44.0,29.81,NNW,327,4.0,13.0,77,0.00,,,0.00,,2013-05-02 12:21:00,
2013-05-02 07:32:00,51.0,44.0,29.82,WNW,284,3.0,12.0,77,0.00,,,0.00,,2013-05-02 12:32:00,
2013-05-02 07:42:00,51.0,44.0,29.82,WNW,284,3.0,12.0,77,0.00,,,0.00,,2013-05-02 12:42:00,
2013-05-02 07:52:00,50.0,44.0,29.83,NW,316,4.0,11.0,80,0.00,,,0.00,,2013-05-02 12:52:00,
2013-05-02 08:01:00,49.0,45.0,29.83,WNW,300,2.0,11.0,86,0.00,,,0.00,,2013-05-02 13:01:00,
2013-05-02 08:11:00,49.0,45.0,29.83,WNW,300,2.0,11.0,86,0.00,,,0.00,,2013-05-02 13:11:00,
2013-05-02 08:21:00,48.0,45.0,29.83,North,350,2.0,11.0,89,0.00,,,0.00,,2013-05-02 13:21:00,
2013-05-02 08:32:00,48.0,45.0,29.84,West,280,2.0,11.0,89,0.00,,,0.00,,2013-05-02 13:32:00,
2013-05-02 08:42:00,48.0,45.0,29.84,West,280,2.0,11.0,89,0.00,,,0.00,,2013-05-02 13:42:00,
2013-05-02 08:52:00,49.0,45.0,29.85,WNW,303,5.0,16.0,85,0.00,,,0.00,,2013-05-02 13:52:00,
2013-05-02 09:02:00,49.0,44.0,29.86,WSW,257,5.0,20.0,82,0.00,,,0.00,,2013-05-02 14:02:00,
2013-05-02 09:11:00,49.0,44.0,29.86,WSW,257,5.0,20.0,82,0.00,,,0.00,,2013-05-02 14:11:00,
2013-05-02 09:22:00,49.0,43.0,29.86,NNW,341,3.0,14.0,81,0.00,,,0.00,,2013-05-02 14:22:00,
2013-05-02 09:32:00,49.0,43.0,29.86,NNW,331,4.0,13.0,79,0.00,,,0.00,,2013-05-02 14:32:00,
2013-05-02 09:42:00,49.0,43.0,29.86,NNW,331,4.0,13.0,79,0.00,,,0.00,,2013-05-02 14:42:00,
2013-05-02 09:52:00,50.0,43.0,29.86,NW,326,3.0,14.0,77,0.00,,,0.00,,2013-05-02 14:52:00,
2013-05-02 10:02:00,50.0,43.0,29.86,NNW,335,3.0,12.0,76,0.00,,,0.00,,2013-05-02 15:02:00,
2013-05-02 10:12:00,50.0,43.0,29.86,NNW,335,3.0,12.0,76,0.00,,,0.00,,2013-05-02 15:12:00,
2013-05-02 10:22:00,50.0,43.0,29.87,NE,39,4.0,14.0,76,0.00,,,0.00,,2013-05-02 15:22:00,
2013-05-02 10:33:00,49.0,42.0,29.88,WNW,298,4.0,10.0,76,0.00,,,0.00,,2013-05-02 15:33:00,
2013-05-02 10:43:00,49.0,42.0,29.88,WNW,298,4.0,10.0,76,0.00,,,0.00,,2013-05-02 15:43:00,
2013-05-02 11:03:00,49.0,42.0,29.88,NNW,342,6.0,16.0,76,0.00,,,0.00,,2013-05-02 16:03:00,
2013-05-02 11:13:00,49.0,42.0,29.88,NNW,342,6.0,16.0,76,0.00,,,0.00,,2013-05-02 16:13:00,
2013-05-02 11:22:00,50.0,42.0,29.89,West,275,4.0,15.0,75,0.00,,,0.00,,2013-05-02 16:22:00,
2013-05-02 11:32:00,50.0,42.0,29.90,West,264,2.0,19.0,74,0.00,,,0.00,,2013-05-02 16:32:00,
2013-05-02 11:43:00,50.0,42.0,29.90,West,264,2.0,19.0,74,0.00,,,0.00,,2013-05-02 16:43:00,
2013-05-02 11:52:00,50.0,42.0,29.90,NNW,341,5.0,16.0,74,0.00,,,0.00,,2013-05-02 16:52:00,
2013-05-02 12:02:00,50.0,42.0,29.91,NNE,26,5.0,14.0,73,0.00,,,0.00,,2013-05-02 17:02:00,
2013-05-02 12:12:00,50.0,42.0,29.91,NNE,26,5.0,14.0,73,0.00,,,0.00,,2013-05-02 17:12:00,
2013-05-02 12:22:00,50.0,42.0,29.91,NW,320,5.0,20.0,73,0.00,,,0.00,,2013-05-02 17:22:00,
2013-05-02 12:32:00,50.0,41.0,29.92,North,355,6.0,17.0,72,0.00,,,0.00,,2013-05-02 17:32:00,
2013-05-02 12:42:00,50.0,41.0,29.92,North,355,6.0,17.0,72,0.00,,,0.00,,2013-05-02 17:42:00,
2013-05-02 12:52:00,50.0,42.0,29.92,WNW,302,5.0,16.0,73,0.00,,,0.00,,2013-05-02 17:52:00,
2013-05-02 13:01:00,51.0,42.0,29.92,NNW,331,5.0,16.0,72,0.00,,,0.00,,2013-05-02 18:01:00,
2013-05-02 13:11:00,51.0,42.0,29.92,NNW,331,5.0,16.0,72,0.00,,,0.00,,2013-05-02 18:11:00,
2013-05-02 13:21:00,51.0,42.0,29.91,WNW,284,6.0,14.0,71,0.00,,,0.00,,2013-05-02 18:21:00,
2013-05-02 13:32:00,52.0,43.0,29.91,NNE,13,4.0,18.0,70,0.00,,,0.00,,2013-05-02 18:32:00,
2013-05-02 13:42:00,52.0,43.0,29.91,NNE,13,4.0,18.0,70,0.00,,,0.00,,2013-05-02 18:42:00,
2013-05-02 13:52:00,52.0,42.0,29.92,WSW,245,3.0,14.0,69,0.00,,,0.00,,2013-05-02 18:52:00,
2013-05-02 14:01:00,51.0,41.0,29.93,WNW,292,5.0,16.0,69,0.00,,,0.00,,2013-05-02 19:01:00,
2013-05-02 14:11:00,51.0,41.0,29.93,WNW,292,5.0,16.0,69,0.00,,,0.00,,2013-05-02 19:11:00,
2013-05-02 14:21:00,50.0,41.0,29.93,WNW,290,5.0,15.0,71,0.00,,,0.00,,2013-05-02 19:21:00,
2013-05-02 14:32:00,49.0,40.0,29.94,NW,326,7.0,15.0,71,0.00,,,0.00,,2013-05-02 19:32:00,
2013-05-02 14:42:00,49.0,40.0,29.94,NW,326,7.0,15.0,71,0.00,,,0.00,,2013-05-02 19:42:00,
2013-05-02 14:52:00,49.0,41.0,29.94,West,281,4.0,19.0,73,0.00,,,0.00,,2013-05-02 19:52:00,
2013-05-02 15:02:00,48.0,40.0,29.95,NW,320,4.0,12.0,73,0.00,,,0.00,,2013-05-02 20:02:00,
2013-05-02 15:11:00,48.0,40.0,29.95,NW,320,4.0,12.0,73,0.00,,,0.00,,2013-05-02 20:11:00,
2013-05-02 15:22:00,47.0,39.0,29.95,West,262,5.0,13.0,73,0.00,,,0.00,,2013-05-02 20:22:00,
2013-05-02 15:32:00,47.0,39.0,29.95,NNW,340,3.0,18.0,74,0.00,,,0.00,,2013-05-02 20:32:00,
2013-05-02 15:41:00,47.0,39.0,29.95,NNW,340,3.0,18.0,74,0.00,,,0.00,,2013-05-02 20:41:00,
2013-05-02 15:52:00,47.0,39.0,29.94,NW,316,6.0,19.0,73,0.00,,,0.00,,2013-05-02 20:52:00,
2013-05-02 16:01:00,47.0,39.0,29.95,NNW,343,5.0,16.0,73,0.00,,,0.00,,2013-05-02 21:01:00,
2013-05-02 16:11:00,47.0,39.0,29.95,NNW,343,5.0,16.0,73,0.00,,,0.00,,2013-05-02 21:11:00,
2013-05-02 16:21:00,46.0,40.0,29.95,NNW,348,6.0,15.0,80,0.00,,,0.00,,2013-05-02 21:21:00,
2013-05-02 16:33:00,46.0,40.0,29.95,North,5,5.0,17.0,79,0.00,,,0.00,,2013-05-02 21:33:00,
2013-05-02 16:42:00,46.0,40.0,29.95,North,5,5.0,17.0,79,0.00,,,0.00,,2013-05-02 21:42:00,
2013-05-02 16:53:00,46.0,39.0,29.95,WNW,296,7.0,19.0,77,0.00,,,0.00,,2013-05-02 21:53:00,
2013-05-02 17:02:00,46.0,40.0,29.95,North,355,5.0,16.0,78,0.00,,,0.00,,2013-05-02 22:02:00,
2013-05-02 17:12:00,46.0,40.0,29.95,North,355,5.0,16.0,78,0.00,,,0.00,,2013-05-02 22:12:00,
2013-05-02 17:22:00,45.0,40.0,29.95,NW,317,4.0,12.0,83,0.00,,,0.00,,2013-05-02 22:22:00,
2013-05-02 17:32:00,45.0,40.0,29.96,NW,316,3.0,18.0,84,0.00,,,0.00,,2013-05-02 22:32:00,
2013-05-02 17:42:00,45.0,40.0,29.96,NW,316,3.0,18.0,84,0.00,,,0.00,,2013-05-02 22:42:00,
2013-05-02 17:52:00,44.0,40.0,29.96,SW,234,3.0,16.0,86,0.00,,,0.00,,2013-05-02 22:52:00,
2013-05-02 18:02:00,43.0,39.0,29.96,NW,322,5.0,14.0,87,0.00,,,0.00,,2013-05-02 23:02:00,
2013-05-02 18:11:00,43.0,39.0,29.96,NW,322,5.0,14.0,87,0.00,,,0.00,,2013-05-02 23:11:00,
2013-05-02 18:22:00,43.0,39.0,29.96,WNW,285,5.0,19.0,86,0.00,,,0.00,,2013-05-02 23:22:00,
2013-05-02 18:32:00,44.0,39.0,29.96,NE,35,5.0,18.0,84,0.00,,,0.00,,2013-05-02 23:32:00,
2013-05-02 18:42:00,44.0,39.0,29.96,NE,35,5.0,18.0,84,0.00,,,0.00,,2013-05-02 23:42:00,
2013-05-02 18:52:00,44.0,38.0,29.97,North,349,4.0,16.0,80,0.00,,,0.00,,2013-05-02 23:52:00,
2013-05-02 19:01:00,44.0,38.0,29.97,West,280,2.0,12.0,79,0.00,,,0.00,,2013-05-03 00:01:00,
2013-05-02 19:11:00,44.0,38.0,29.97,West,280,2.0,12.0,79,0.00,,,0.00,,2013-05-03 00:11:00,
2013-05-02 19:21:00,44.0,39.0,29.98,NW,316,3.0,17.0,83,0.00,,,0.00,,2013-05-03 00:21:00,
2013-05-02 19:31:00,44.0,38.0,29.97,WNW,292,5.0,16.0,79,0.00,,,0.00,,2013-05-03 00:31:00,
2013-05-02 19:41:00,44.0,38.0,29.97,WNW,292,5.0,16.0,79,0.00,,,0.00,,2013-05-03 00:41:00,
2013-05-02 19:52:00,44.0,38.0,29.98,NNW,340,8.0,21.0,78,0.00,,,0.00,,2013-05-03 00:52:00,
2013-05-02 20:01:00,44.0,38.0,29.98,West,277,5.0,14.0,80,0.00,,,0.00,,2013-05-03 01:01:00,
2013-05-02 20:11:00,44.0,38.0,29.98,West,277,5.0,14.0,80,0.00,,,0.00,,2013-05-03 01:11:00,
2013-05-02 20:21:00,43.0,37.0,29.98,NNW,348,8.0,22.0,80,0.00,,,0.00,,2013-05-03 01:21:00,
2013-05-02 20:31:00,44.0,37.0,29.99,NNW,327,3.0,15.0,77,0.00,,,0.00,,2013-05-03 01:31:00,
2013-05-02 20:42:00,44.0,37.0,29.99,NNW,327,3.0,15.0,77,0.00,,,0.00,,2013-05-03 01:42:00,
2013-05-02 20:52:00,44.0,38.0,29.99,NW,316,5.0,20.0,78,0.00,,,0.00,,2013-05-03 01:52:00,
2013-05-02 21:01:00,44.0,38.0,30.00,WNW,283,5.0,16.0,78,0.00,,,0.00,,2013-05-03 02:01:00,
2013-05-02 21:11:00,44.0,38.0,30.00,WNW,283,5.0,16.0,78,0.00,,,0.00,,2013-05-03 02:11:00,
2013-05-02 21:21:00,44.0,37.0,30.00,NW,312,4.0,18.0,77,0.00,,,0.00,,2013-05-03 02:21:00,
2013-05-02 21:32:00,45.0,37.0,30.00,NW,311,7.0,20.0,74,0.00,,,0.00,,2013-05-03 02:32:00,
2013-05-02 21:42:00,45.0,37.0,30.00,NW,311,7.0,20.0,74,0.00,,,0.00,,2013-05-03 02:42:00,
2013-05-02 21:52:00,45.0,37.0,30.00,NNW,342,7.0,18.0,73,0.00,,,0.00,,2013-05-03 02:52:00,
2013-05-02 22:01:00,45.0,37.0,30.01,West,281,6.0,22.0,73,0.00,,,0.00,,2013-05-03 03:01:00,
2013-05-02 22:11:00,45.0,37.0,30.01,West,281,6.0,22.0,73,0.00,,,0.00,,2013-05-03 03:11:00,
2013-05-02 22:21:00,45.0,37.0,30.01,NNW,328,6.0,15.0,73,0.00,,,0.00,,2013-05-03 03:21:00,
2013-05-02 22:33:00,45.0,37.0,30.01,NW,311,5.0,11.0,73,0.00,,,0.00,,2013-05-03 03:33:00,
2013-05-02 22:42:00,45.0,37.0,30.01,NW,311,5.0,11.0,73,0.00,,,0.00,,2013-05-03 03:42:00,
2013-05-02 22:53:00,45.0,37.0,30.01,NW,305,2.0,11.0,74,0.00,,,0.00,,2013-05-03 03:53:00,
2013-05-02 23:03:00,44.0,36.0,30.01,NNW,338,4.0,14.0,74,0.00,,,0.00,,2013-05-03 04:03:00,
2013-05-02 23:12:00,44.0,36.0,30.01,NNW,338,4.0,14.0,74,0.00,,,0.00,,2013-05-03 04:12:00,
2013-05-02 23:22:00,45.0,37.0,30.01,North,355,3.0,15.0,74,0.00,,,0.00,,2013-05-03 04:22:00,
2013-05-02 23:32:00,45.0,37.0,30.00,NNW,340,4.0,12.0,73,0.00,,,0.00,,2013-05-03 04:32:00,
2013-05-02 23:42:00,45.0,37.0,30.00,NNW,340,4.0,12.0,73,0.00,,,0.00,,2013-05-03 04:42:00,
2013-05-02 23:53:00,45.0,37.0,30.00,NW,318,3.0,12.0,72,0.00,,,0.00,,2013-05-03 04:53:00,